Regional Weather Roundup
Issued by NWS Sioux Falls, SD

Home | Current Version | Previous Version | Text Only | Print | Product List | Glossary On
Versions: 1 2 3 4 5 6 7 8 9 10 11 12 13 14 15 16 17 18 19 20 21 22 23 24 25 26 27 28 29 30 31 32 33 34 35 36 37 38 39 40 41 42 43 44 45 46 47 48 49 50
000
ASUS43 KFSD 282210
RWRFSD

WEATHER ROUNDUP FOR SE SOUTH DAKOTA/SW MINNESOTA/NW IOWA
NATIONAL WEATHER SERVICE SIOUX FALLS SD
500 PM CDT SUN AUG 28 2016

NOTE: "FAIR" INDICATES FEW OR NO CLOUDS BELOW 12,000 FEET WITH NO
SIGNIFICANT WEATHER AND OR OBSTRUCTIONS TO VISIBILITY.


SDZ038>040-050-052>070-282300-
SOUTHEAST SOUTH DAKOTA

CITY           SKY/WX    TMP DP  RH WIND       PRES   REMARKS
BROOKINGS        N/A    N/A N/A N/A MISG        N/A
CHAMBERLAIN    SUNNY     96  63  33 S15       29.93S HX  97
HURON          SUNNY     91  67  44 S17G26    29.93F
MADISON        FAIR      84  72  65 S17G25    30.02F
MITCHELL       MOSUNNY   93  66  40 S18       29.96S HX  96
SIOUX FALLS    MOSUNNY   89  72  56 SE15G22   30.02F HX  96
WINNER         FAIR      96  61  31 S17       29.95S HX  96
YANKTON        CLOUDY    90  70  51 SE18G25   29.98F HX  95
$$

MNZ071-072-080-081-089-090-097-098-282300-
SOUTHWEST MINNESOTA

CITY           SKY/WX    TMP DP  RH WIND       PRES   REMARKS
FAIRMONT       SUNNY     84  70  62 S10       30.09F
JACKSON          N/A     84  68  58 S8        30.09F
LUVERNE        MOSUNNY   82  70  65 S7        30.05S
MARSHALL       MOSUNNY   86  73  65 S16G23    30.02F
MONTEVIDEO     SUNNY     88  73  62 S16       30.02F HX  96
PIPESTONE      MOSUNNY   84  73  70 S9        30.05F
REDWOOD FALLS  SUNNY     85  71  63 S18       30.04F
TRACY          SUNNY     86  73  66 S10G16    30.04F
WINDOM         MOSUNNY   84  70  61 SE14      30.07F
WORTHINGTON    MOSUNNY   85  74  69 S9        30.08S
$$

IAZ001>003-012>014-020>022-031-032-NEZ013-014-SDZ071-282300-
NORTHWEST IOWA

CITY           SKY/WX    TMP DP  RH WIND       PRES   REMARKS
CHEROKEE       PTSUNNY   85  75  72 SE9       30.06S
DENISON        HAZE      86  73  66 SE6       30.05S VSB 1/2
ESTHERVILLE    SUNNY     83  71  67 SE15      30.08F
LE MARS        SUNNY     88  72  58 S12G17    30.05S
ORANGE CITY    SUNNY     84  73  70 S8        30.06S
SHELDON        SUNNY     84  75  74 S10G20    30.05S
SIOUX CITY     PTSUNNY   87  72  60 S13       30.03F
SPENCER        SUNNY     86  71  60 SE14      30.07F
STORM LAKE     MOSUNNY   82  73  74 SE9       30.08F
$$

ABBREVIATIONS USED IN REMARKS
   TC - TEMPERATURE IN CELSIUS
  WCI - WIND CHILL INDEX
   HX - HEAT INDEX
  VSB - VISIBILITY





USA.gov is the U.S. government's official web portal to all federal, state and local government web resources and services.